Location: Le Domaine
(47.0333°N, 76.5361°W)
Time: 18:07:47
(UTC-05:00)

S-56A Canister/Altair - Pass Details

Date: 26 November 2019
Orbit: 633 x 2499 km, 38.9° (Epoch: 06 December)

Event Time Altitude Azimuth Distance (km) Brightness Sun altitude
Rises 12:20:48 0° 196° (SSW) 6,155 13.6 21.7°
Reaches altitude 10° 12:26:24 10° 183° (S) 5,055 13.9 21.6°
Maximum altitude 12:35:41 21° 142° (SE) 3,870 11.9 21.3°
Drops below altitude 10° 12:43:34 10° 100° (E) 4,234 11.3 21.1°
Sets 12:47:38 0° 85° (E) 4,925 11.5 20.9°
